This demonstration page uses our WeatherBlox Daily Observations layout. Learn more.

Left ArrowRight Arrow

Hourly Observations for September 7, 2016

Temp ( °F °C ) Dew Point ( °F °C ) Humidity (%) Winds ( mph kmh ) Pressure ( in mb ) Visibility ( mi km ) Precip ( " mm )
12:15 am 00:15 Partly Cloudy 81 27 68 20 66 66 NNE 7 11 30.06 1018 10 16 N/A
12:35 am 00:35 Mostly Cloudy 79 26 68 20 70 70 N 5 7 30.06 1018 10 16 N/A
12:55 am 00:55 Partly Cloudy 77 25 68 20 74 74 NW 5 7 30.06 1018 10 16 N/A
1:15 am 01:15 Clear 73 23 68 20 83 83 W 10 17 30.06 1018 10 16 N/A
1:35 am 01:35 Partly Cloudy 75 24 68 20 78 78 W 3 6 30.03 1017 10 16 N/A
1:55 am 01:55 Partly Cloudy 73 23 68 20 83 83 W 10 17 30.03 1017 10 16 N/A
2:15 am 02:15 Partly Cloudy 73 23 68 20 83 83 N N/A 30.03 1017 10 16 N/A
2:35 am 02:35 Clear 72 22 68 20 88 88 W 5 7 30.03 1017 10 16 N/A
2:55 am 02:55 Clear 73 23 68 20 83 83 WNW 13 20 30.03 1017 10 16 N/A
3:15 am 03:15 Partly Cloudy 73 23 70 21 89 89 WNW 6 9 30.03 1017 10 16 N/A
3:35 am 03:35 Mostly Cloudy 73 23 68 20 83 83 N N/A 30.03 1017 10 16 N/A
3:55 am 03:55 Mostly Cloudy 72 22 70 21 94 94 N N/A 30.03 1017 10 16 N/A
4:15 am 04:15 Mostly Cloudy 73 23 70 21 89 89 WNW 5 7 30.03 1017 10 16 N/A
4:35 am 04:35 Mostly Cloudy 73 23 70 21 89 89 N N/A 30.03 1017 10 16 N/A
4:55 am 04:55 Clear 72 22 70 21 94 94 N N/A 30.06 1018 10 16 N/A
5:15 am 05:15 Clear 72 22 70 21 94 94 S 3 6 30.06 1018 10 16 N/A
5:35 am 05:35 Partly Cloudy 72 22 70 21 94 94 N N/A 30.06 1018 10 16 N/A
5:55 am 05:55 Mostly Cloudy 70 21 70 21 100 100 W 5 7 30.06 1018 10 16 N/A
6:15 am 06:15 Partly Cloudy 70 21 70 21 100 100 WNW 3 6 30.06 1018 10 16 N/A
6:35 am 06:35 Mostly Cloudy 72 22 70 21 94 94 NW 7 11 30.06 1018 10 16 N/A
6:55 am 06:55 Mostly Cloudy 73 23 70 21 89 89 NNE 5 7 30.06 1018 10 16 N/A
7:15 am 07:15 Cloudy 73 23 70 21 89 89 ENE 3 6 30.06 1018 10 16 N/A
7:35 am 07:35 Cloudy 73 23 70 21 89 89 N N/A 30.06 1018 10 16 N/A
7:55 am 07:55 Mostly Cloudy 73 23 70 21 89 89 SSW 6 9 30.09 1019 10 16 N/A
8:15 am 08:15 Mostly Cloudy 75 24 70 21 83 83 N N/A 30.09 1019 10 16 N/A
8:35 am 08:35 Mostly Cloudy 77 25 70 21 79 79 E 3 6 30.09 1019 10 16 N/A
8:55 am 08:55 Mostly Cloudy 77 25 70 21 79 79 ESE 3 6 30.09 1019 10 16 N/A
9:15 am 09:15 Mostly Cloudy 79 26 72 22 79 79 NW 7 11 30.09 1019 10 16 N/A
9:35 am 09:35 Mostly Cloudy 81 27 72 22 74 74 NW 13 20 30.09 1019 10 16 N/A
9:55 am 09:55 Sunny 82 28 72 22 70 70 N 7 11 30.09 1019 10 16 N/A
10:15 am 10:15 Partly Cloudy 82 28 73 23 74 74 WNW 7 11 30.09 1019 10 16 N/A
10:35 am 10:35 Partly Cloudy 82 28 73 23 74 74 NW 12 19 30.09 1019 10 16 N/A
10:55 am 10:55 Mostly Cloudy 82 28 73 23 74 74 NW 16 26 30.09 1019 10 16 N/A
11:15 am 11:15 Mostly Cloudy 84 29 73 23 70 70 WNW 13 20 30.09 1019 10 16 N/A
11:35 am 11:35 Partly Cloudy 86 30 73 23 66 66 WNW 14 22 30.09 1019 10 16 N/A
11:55 am 11:55 Mostly Cloudy 84 29 73 23 70 70 NW 13 20 30.09 1019 10 16 N/A
12:15 pm 12:15 Mostly Cloudy 86 30 73 23 66 66 WNW 12 19 30.09 1019 10 16 N/A
12:35 pm 12:35 Mostly Cloudy 86 30 73 23 66 66 NW 13 20 30.09 1019 10 16 N/A
12:55 pm 12:55 Mostly Cloudy 86 30 73 23 66 66 NW 15 24 30.06 1018 10 16 N/A
1:15 pm 13:15 Mostly Cloudy 86 30 73 23 66 66 NW 15 24 30.09 1019 10 16 N/A
1:35 pm 13:35 Partly Cloudy 86 30 75 24 70 70 NW 13 20 30.06 1018 10 16 N/A
1:55 pm 13:55 Partly Cloudy 90 32 77 25 67 67 NW 8 13 30.03 1017 10 16 N/A
2:15 pm 14:15 Sunny 90 32 77 25 67 67 NW 8 13 30.00 1016 10 16 N/A
2:35 pm 14:35 Sunny 90 32 77 25 67 67 NNW 7 11 30.00 1016 10 16 N/A
2:55 pm 14:55 Sunny 91 33 75 24 59 59 NNW 9 15 30.00 1016 10 16 N/A
3:15 pm 15:15 Partly Cloudy 90 32 73 23 59 59 NNW 9 15 29.97 1015 10 16 N/A
3:35 pm 15:35 Partly Cloudy 91 33 75 24 59 59 NW 10 17 29.97 1015 10 16 N/A
3:55 pm 15:55 Sunny 91 33 73 23 56 56 NW 8 13 29.97 1015 10 16 N/A
4:15 pm 16:15 Sunny 93 34 73 23 53 53 NW 8 13 29.94 1014 10 16 N/A
4:35 pm 16:35 Sunny 93 34 73 23 53 53 NNW 7 11 29.94 1014 10 16 N/A
4:55 pm 16:55 Partly Cloudy 93 34 73 23 53 53 W 8 13 29.94 1014 10 16 N/A
5:15 pm 17:15 Partly Cloudy 93 34 73 23 53 53 W 10 17 29.94 1014 10 16 N/A
5:35 pm 17:35 Partly Cloudy 91 33 72 22 52 52 WNW 10 17 29.94 1014 10 16 N/A
5:55 pm 17:55 Partly Cloudy 86 30 73 23 66 66 NW 23 37 29.94 1014 10 16 N/A
6:35 pm 18:35 Partly Cloudy 79 26 73 23 84 84 W 7 11 30.00 1016 10 16 N/A
6:55 pm 18:55 Partly Cloudy 79 26 73 23 84 84 W 3 6 30.00 1016 10 16 N/A
7:15 pm 19:15 Mostly Cloudy 79 26 73 23 84 84 ENE 3 6 30.00 1016 10 16 N/A
7:35 pm 19:35 Mostly Cloudy 79 26 73 23 84 84 WNW 8 13 30.00 1016 10 16 N/A
7:55 pm 19:55 Partly Cloudy 79 26 73 23 84 84 SSW 10 17 30.03 1017 10 16 N/A
8:15 pm 20:15 Partly Cloudy 79 26 73 23 84 84 SSW 7 11 30.00 1016 10 16 N/A
8:35 pm 20:35 Clear 79 26 75 24 89 89 SSW 7 11 30.00 1016 10 16 N/A
8:55 pm 20:55 Clear 79 26 75 24 89 89 SSW 7 11 30.00 1016 10 16 N/A
9:15 pm 21:15 Mostly Cloudy 77 25 75 24 94 94 SSW 8 13 30.00 1016 10 16 N/A
9:35 pm 21:35 Cloudy 77 25 75 24 94 94 SW 5 7 30.00 1016 10 16 N/A
9:55 pm 21:55 Cloudy 77 25 75 24 94 94 SE 7 11 30.03 1017 10 16 N/A
10:15 pm 22:15 Cloudy 77 25 75 24 94 94 SSW 12 19 30.03 1017 10 16 N/A
10:35 pm 22:35 Cloudy 77 25 75 24 94 94 SSW 6 9 30.00 1016 10 16 N/A
10:55 pm 22:55 Mostly Cloudy 77 25 75 24 94 94 SW 6 9 30.00 1016 10 16 N/A
11:15 pm 23:15 Partly Cloudy 77 25 75 24 94 94 SW 5 7 30.00 1016 10 16 N/A
11:35 pm 23:35 Partly Cloudy 75 24 75 24 100 100 WSW 6 9 30.00 1016 10 16 N/A
11:55 pm 23:55 Clear 75 24 75 24 100 100 SW 6 9 30.00 1016 10 16 N/A

Powered by AerisWeather